INTELSAT 28 (IS-28)

Last updated on Thu Nov 21 2024 00:02:41 GMT+0000 (Coordinated Universal Time)

1 37392U 11016A 24324.35327236 .00000158 00000+0 00000+0 0 9991 2 37392 0.3144 90.5575 0003402 158.7264 329.6009 1.00273809 47528
UTC large
Height (km)
Speed (km/s)
/
Latitude / Longitude
Inclination (degrees)
Orbital Period (minutes)
Azimuth
Elevation
Range (km)
Doppler Factor

Next 0 passes for location: London (51.5072 / 0.1276)

Sorry there are no passes over London.